Home   Weather   Cheyenne   Past weeks

Flag for USA Past Weather in Cheyenne, Wyoming, USA — Yesterday and Last 2 Weeks

Now
28 °F

Overcast.


Feels Like: 17 °F
Forecast: 27 / 46 °F
Wind: 14 mph from South

Location: Cheyenne Airport

Current Time: Jan 22, 2017 at 11:29:13 pm

Latest Report: Jan 22, 2017 at 10:53 pm


Visibility: 10 mi

Pressure: 29.81 "Hg (23.59 "Hg at 1855m altitude)

Humidity: 51%

Dew Point: 12 °F

Location of CheyenneLocation

Past Weather in Cheyenne — Graph

°F

Cheyenne Temperature Yesterday

Maximum temperature yesterday: 40 °F (at 2:53 pm)
Minimum temperature yesterday: 18 °F (at 6:53 am)
Average temperature yesterday: 29 °F

High & Low Weather Summary for the Past Weeks

 TemperatureHumidityPressure
High56 °F (Jan 18, 1:53 pm)96% (Jan 12, 11:53 pm)30.44 "Hg (Jan 12, 11:53 pm)
Low13 °F (Jan 17, 6:53 am)12% (Jan 17, 1:53 pm)29.33 "Hg (Jan 20, 1:53 pm)
Average32 °F59%29.88 "Hg
* Reported Jan 8 6:53 am — Jan 22 9:53 pm, Cheyenne, Weather by CustomWeather, © 2017

Note: Actual official high and low records may vary slightly from our data, if they occured in-between our weather recording intervals... More about our weather records

Advertising

Cheyenne Weather History for the Previous 24 Hours

Scroll right to see more
 ConditionsComfort  
Time TempWeatherWind HumidityBarometerVisibility
9:53 pm
Sun, Jan 22
29 °FClear.12 mph49%29.83 "Hg10 mi
8:53 pm26 °FClear.5 mph52%29.90 "Hg10 mi
7:53 pm26 °FClear.7 mph55%29.95 "Hg10 mi
6:53 pm28 °FClear.5 mph45%29.95 "Hg10 mi
5:53 pm28 °FClear.3 mph45%29.95 "Hg10 mi
4:53 pm33 °FSunny.7 mph33%29.90 "Hg10 mi
3:53 pm35 °FSunny.13 mph32%29.89 "Hg10 mi
2:53 pm37 °FSunny.23 mph33%29.91 "Hg10 mi
1:53 pm37 °FSunny.18 mph31%29.90 "Hg10 mi
12:53 pm37 °FSunny.25 mph30%29.93 "Hg10 mi
11:53 am36 °FSunny.18 mph31%29.95 "Hg10 mi
10:53 am35 °FSunny.16 mph35%29.98 "Hg10 mi
9:53 am34 °FSunny.17 mph35%29.96 "Hg10 mi
8:53 am29 °FSunny.8 mph49%29.97 "Hg10 mi
7:53 am26 °FSunny.12 mph55%29.97 "Hg10 mi
6:53 am27 °FClear.18 mph55%29.94 "Hg10 mi
5:53 am28 °FClear.20 mph53%29.90 "Hg10 mi
4:53 am28 °FPassing clouds.17 mph56%29.85 "Hg10 mi
3:53 am29 °FClear.15 mph56%29.79 "Hg10 mi
2:53 am29 °FClear.12 mph56%29.76 "Hg10 mi
1:53 am29 °FMostly cloudy.10 mph61%29.75 "Hg10 mi
12:53 am28 °FClear.7 mph66%29.74 "Hg10 mi
11:53 pm
Sat, Jan 21
29 °FPassing clouds.7 mph66%29.70 "Hg10 mi
Weather by CustomWeather, © 2017

See weather overviewHow to use our weather pages